Regional Weather Roundup
Issued by NWS Sterling, VA

Home | Current Version | Previous Version | Graphics & Text | Print | Product List | Glossary On
Versions: 1 2 3 4 5 6 7 8 9 10 11 12 13 14 15 16 17 18 19 20 21 22 23 24 25 26 27 28 29 30 31 32 33 34 35 36 37 38 39 40 41 42 43 44 45 46 47 48 49 50
000
ASUS41 KLWX 011310
RWRLWX

REGIONAL WEATHER ROUNDUP
NATIONAL WEATHER SERVICE BALTIMORE MD/WASHINGTON DC
800 AM EST SUN MAR 01 2015

Note: "FAIR" indicates few or no clouds below 12,000 feet
with no significant weather and/or obstructions to visibility.
 TC=TEMPERATURE CELSIUS

 * =Non NWS site. Station does not report precipitation (e.g. rain,
    snow, etc.), thunder, or fog.

DCZ001-MDZ009-015-VAZ040>042-051-053>054-011400-
WASHINGTON METRO

CITY           SKY/WX    TMP DP  RH WIND       PRES   REMARKS
WASHINGTON NAT CLOUDY    29  16  58 S5        30.67S
DULLES         CLOUDY    25  11  55 SE6       30.62F
ANDREWS AFB    FLURRIES  25  15  64 SE5       30.64F
FT BELVOIR     MIX PCPN  26  18  70 SE2       30.65F
QUANTICO       FRZ RAIN  27  20  75 S8        30.67F WCI  19
COLLEGE PARK*  CLOUDY    28  18  64 CALM      30.66S
LEESBURG*      CLOUDY    27  18  69 S3        30.63S
GAITHERSBURG*  CLOUDY    21  10  63 SE3       30.65S

$$

MDZ006>007-011-014-011400-
BALTIMORE METRO

CITY           SKY/WX    TMP DP  RH WIND       PRES   REMARKS
BWI AIRPORT    CLOUDY    23  14  68 CALM      30.65S
MD SCIENCE CTR   N/A      1  32 100 MISG      30.66F
MARTIN STATE   CLOUDY    23  14  68 CALM      30.67F
ANNAPOLIS      CLOUDY    25  18  74 CALM      30.66S
FORT MEADE*    CLOUDY    23  16  74 CALM      30.68S

$$

MDZ012-015-019>023-011400-
MARYLAND EASTERN SHORE

CITY           SKY/WX    TMP DP  RH WIND       PRES   REMARKS
OCEAN CITY     CLOUDY    29  20  69 NE3       30.66S
SALISBURY      CLOUDY    27  15  61 CALM      30.67R
BAY BRIDGE AP*   N/A     27  18  69 SE5       30.67S
CAMBRIDGE*     MOSUNNY   28  16  59 CALM      30.67R

$$

MDZ017>025-011400-
SOUTHERN MARYLAND

CITY           SKY/WX    TMP DP  RH WIND       PRES   REMARKS
PATUXENT RIVER SLEET     28  18  66 SE5       30.67R FOG
ST INIGOES     MIX PCPN  27  18  69 CALM      30.66R
LEONARDTOWN*   CLOUDY    27  21  80 CALM      30.68S

$$

MDZ003>005-011400-
NORTH CENTRAL MARYLAND

CITY           SKY/WX    TMP DP  RH WIND       PRES   REMARKS
FREDERICK*     LGT SNOW  23  10  58 CALM      30.65F
HAGERSTOWN APT LGT SNOW  22  18  85 S7        30.56S VSB 1
WESTMINSTER*   CLOUDY    23  10  58 S7        30.58S

$$

MDZ501>502-011400-
WESTERN MARYLAND

CITY           SKY/WX    TMP DP  RH WIND       PRES   REMARKS
OAKLAND*       CLOUDY    27 N/A N/A S13       30.34F HAZE    WCI  16
CUMBERLAND*    CLOUDY    25  19  80 CALM      30.57F VSB 3/4

$$

VAZ025>031-011400-
SHENANDOAH VALLEY

CITY           SKY/WX    TMP DP  RH WIND       PRES   REMARKS
WINCHESTER*    CLOUDY    28  10  47 CALM      30.57R
FRONT ROYAL*   CLOUDY    25  14  63 CALM      30.56R
LURAY*         CLOUDY    32  19  59 SW3       30.55R
NEW MARKET*    CLOUDY    25  17  73 CALM      30.53S
STAUNTON*      MIX PCPN  28  14  55 S6        30.55S
WAYNESBORO*    CLOUDY    27  14  58 CALM      30.52F

$$

WVZ021-048>050-054>055-011400-
EASTERN WEST VIRGINIA PANHANDLE

CITY           SKY/WX    TMP DP  RH WIND       PRES   REMARKS
MARTINSBURG    SNOW      24  19  81 CALM      30.58R VSB 1/2
PETERSBURG*    NOT AVBL

$$

VAZ036>039-050-011400-
CENTRAL FOOTHILLS

CITY           SKY/WX    TMP DP  RH WIND       PRES   REMARKS
CHARLOTTESVILL CLOUDY    26  15  63 S5        30.60S
CULPEPER*      MIX PCPN  27  19  74 CALM      30.64R
ORANGE*        CLOUDY    28  18  64 CALM      30.64R
GORDONSVILLE*  CLOUDY    25  15  66 CALM      30.62R
WARRENTON*     MIX PCPN  28  22  78 CALM      30.63R

$$

VAZ055>057-011400-
NORTH AND CENTRAL PIEDMONT

CITY           SKY/WX    TMP DP  RH WIND       PRES   REMARKS
FREDERICKSBRG* MIX PCPN  27  22  82 SE3       30.65S
STAFFORD*      MIX PCPN  25  19  78 SE5       30.69S

$$

NCZ024-NYZ072-PAZ021-071-VAZ022-071-011400-
OTHER REGIONAL OBSERVATIONS

CITY           SKY/WX    TMP DP  RH WIND       PRES   REMARKS
NEW YORK CITY  CLOUDY    28   4  35 CALM      30.66F
PHILADELPHIA   CLOUDY    25  12  58 S6        30.69R
PITTSBURGH     LGT SNOW  26  24  92 S7        30.37S VSB 1
ROANOKE        CLOUDY    28  14  55 SE6       30.58S
RICHMOND       FRZ DRZL  28  17  63 N5        30.65R
RALEIGH        FRZ RAIN  30  27  86 NE10      30.60S FOG     WCI  21

$$

ANZ530>537-011400-
MARINE OBSERVATIONS

STATION/POSITION TIME  TEMP    WIND        PRES
                       AIR SEA DIR/SP/G
                 (UTC) (F)     (DEG/KT/KT) (MB)
THOMAS PT LIGHT  1300   27 31  150/  7/  8 1039.5R
BALT KEY BRIDGE  1200   24     320/  3/  4 1038.9R
COVE POINT       1200   26     170/  9/  9 1038.0R
LEWISETTA        1200   27 33              1037.8F
SOLOMONS ISLAND  1200      32                N/A

$$



USA.gov is the U.S. government's official web portal to all federal, state and local government web resources and services.